Location: Härggis
(46.9540°N, 8.4897°E)
Time: 20:22:51
(UTC+00:00)

SL-16 R/B - Pass Details

Date: 30 September 2022
Orbit: 985 x 1007 km, 99.6° (Epoch: 05 December)

Event Time Altitude Azimuth Distance (km) Brightness Sun altitude
Exits shadow 00:59:09 27° 360° (N) 1,803 4.2 -40.5°
Drops below altitude 10° 01:01:54 10° 351° (N) 2,774 5.3 -40.2°
Sets 01:04:25 0° 348° (NNW) 3,731 6.0 -39.9°
